[[{"header":{"parameterUnit":"m.s-1","parameterCategory":1,"la1":30.2991,"la2":30.254,"lo1":-89.0895,"lo2":-89.0444,"dy":0.0017,"dx":0.0017,"nx":28,"ny":28,"refTime":"2023-08-26T03:00:00:Z","depth":0,"parameterNumber":2,"parameterNumberName":"U-component_of_WINDS"},"data":[0,0,0,0,0,0,0,0,0,0,0,0,0,0,0,0,0,0,0,0,0,0,0,0,0,0,0,0,0,0,0,0,0,0,0,0,0,0,0,0,0,0,0,0,0,0,0,0,0,0,0,0,0,0,0,0,0,0,3.5055,3.5057,0,3.5211,3.5213,3.5215,3.5222,3.522,3.5218,3.5217,3.5374,3.538,3.5386,0,0,0,0,0,0,0,0,0,0,0,0,0,3.4761,3.4766,3.5055,3.5057,3.5059,3.5211,3.5213,3.5215,3.5222,3.522,3.5218,3.5216,3.5373,3.538,3.5387,0,0,0,0,0,0,0,0,0,0,0,0,0,3.49,3.4768,3.5055,3.5081,3.5085,3.5211,3.5213,3.5216,3.5223,3.522,3.5217,3.5215,3.537,3.5379,3.5388,3.5497,0,0,3.5415,3.5418,0,0,0,0,0,0,0,0,3.4892,3.4911,3.5075,3.5079,3.5084,3.5194,3.5167,3.531,3.5224,3.517,3.5217,3.5213,3.5317,3.533,3.5365,3.5504,3.5511,3.5415,3.5421,3.5425,3.5427,0,0,0,0,0,0,0,3.4882,3.4904,3.5117,3.5078,3.5083,3.5084,3.5101,3.5194,3.5257,3.5175,3.5176,3.5194,3.5319,3.5356,3.5369,3.5514,3.5415,3.5423,3.5428,3.5432,3.5749,3.5752,0,0,0,0,0,0,3.4868,3.4896,3.5112,3.5121,3.4979,3.5092,3.511,3.5162,3.5256,3.5268,3.5196,3.5194,3.5343,3.5358,3.5374,3.5507,3.5425,3.5433,3.5438,3.5746,3.575,3.5753,0,0,0,0,0,0,3.4862,3.4887,3.5106,3.5009,3.5037,3.51,3.5157,3.5166,3.5204,3.5272,3.5283,3.5224,3.5341,3.5362,3.5466,3.5512,3.5437,3.5445,3.5742,3.5747,3.5751,3.5774,0,0,0,0,0,0,3.4853,3.4885,3.4928,3.501,3.5042,3.5196,3.516,3.5171,3.522,3.5218,3.5301,3.5312,3.5341,3.5453,3.5475,3.5523,3.5452,3.5738,3.5744,3.575,3.5769,3.5779,3.5787,0,0,0,0,0,3.4843,3.4928,3.493,3.4956,3.5097,3.5198,3.5216,3.5248,3.5223,3.5266,3.531,3.5309,3.5504,3.5464,3.5488,3.554,3.5735,3.5743,3.5749,3.5765,3.5777,3.5787,0,0,0,0,0,0,3.4848,3.4939,3.4942,3.5057,3.512,3.5199,3.5254,3.526,3.5331,3.5326,3.5362,3.5381,3.5484,3.5523,3.5476,3.565,3.5617,3.5629,3.562,3.5632,3.5641,3.5628,3.5459,0,0,0,0,0,3.4863,3.4939,3.5014,3.5107,3.5139,3.5191,3.5236,3.5256,3.5322,3.5348,3.54,3.5464,3.5539,3.5588,3.5662,3.5776,3.5793,3.5824,3.5832,3.5839,3.5848,3.591,3.5923,3.5776,3.5776,3.5776,0,0,3.4894,3.4953,3.4998,3.511,3.5161,3.5237,3.5213,3.5295,3.5352,3.5361,3.5462,3.5502,3.5576,3.5685,3.5735,3.572,3.5893,3.5848,3.5853,3.5859,3.5918,3.5932,3.5944,3.5781,3.578,3.5779,0,0,3.4988,3.5042,3.5124,3.5176,3.5254,3.5289,3.5308,3.5388,3.5414,3.5517,3.5525,3.5592,3.5723,3.5774,3.5817,3.5931,3.5933,3.5955,3.5999,3.6059,3.607,3.6081,3.6119,3.6133,3.5964,3.5964,3.5964,0,3.5016,3.5132,3.5166,3.5248,3.5296,3.5309,3.5392,3.5441,3.5538,3.5571,3.5553,3.5716,3.5766,3.5887,3.5914,3.595,3.5972,3.5944,3.6066,3.6077,3.6087,3.6124,3.6139,3.5966,3.5966,3.5966,3.5966,0,3.5161,3.5242,3.5299,3.5393,3.5448,3.553,3.5576,3.5627,3.5642,3.5678,3.5781,3.5843,3.5928,3.5959,3.5974,3.6081,3.6069,3.6059,3.6025,3.6102,3.6137,3.6152,3.5969,3.5968,3.5968,3.5967,0,0,3.5262,3.5374,3.5395,3.5437,3.5524,3.5586,3.5668,3.5752,3.5795,3.5862,3.593,3.604,3.6031,3.608,3.6101,3.6154,3.6237,3.6137,3.6139,3.6151,3.6357,3.6362,3.6378,3.624,3.6243,3.6245,3.6349,0,3.5364,3.5511,3.5544,3.567,3.5743,3.5757,3.5828,3.5889,3.5925,3.5991,3.6031,3.6107,3.6091,3.612,3.6173,3.6216,3.6279,3.6209,3.6302,3.6305,3.628,3.6397,3.6403,3.6498,3.6364,3.6366,3.6368,0,3.5502,3.5572,3.5705,3.5782,3.5814,3.5877,3.5956,3.6021,3.6089,3.6112,3.6167,3.6183,3.6268,3.6232,3.6349,3.6301,3.6341,3.6368,3.6373,3.638,3.6339,3.6404,3.6529,3.6543,3.639,3.6389,3.6387,0,3.5558,3.5687,3.5782,3.5819,3.5911,3.5955,3.5995,3.6061,3.6109,3.6179,3.621,3.6288,3.633,3.639,3.6426,3.6398,3.6539,3.6507,3.6558,3.6557,3.6585,3.6583,3.6716,3.6616,3.6616,3.6616,3.6615,0,3.5667,3.5747,3.5809,3.5867,3.5957,3.5995,3.6083,3.6123,3.6182,3.6247,3.6265,3.6326,3.6372,3.6439,3.6468,3.6559,3.6579,3.6598,3.6604,3.6595,3.6592,3.6619,3.6613,3.6619,3.6619,3.6618,3.6617,0,3.5744,3.5789,3.5894,3.5973,3.5994,3.6057,3.6124,3.6181,3.6218,3.6301,3.6322,3.638,3.646,3.6503,3.6603,3.6623,3.6724,3.6728,3.67,3.6702,3.675,3.6744,3.6903,3.6925,3.6813,3.6814,3.6815,0,3.5808,3.5871,3.5956,3.6002,3.6043,3.6117,3.6166,3.6205,3.6255,3.6338,3.6385,3.6466,3.6533,3.666,3.671,3.6787,3.6791,3.6842,3.6802,3.6791,3.6788,3.6783,3.6788,3.6847,3.6848,3.6849,3.685,0,3.5918,3.5937,3.6007,3.6086,3.6144,3.6207,3.627,3.6306,3.6356,3.6411,3.6494,3.6546,3.6648,3.6728,3.6808,3.6849,3.6857,3.6862,3.6878,3.6867,3.6848,3.6856,3.6716,3.6858,3.6857,3.6856,3.6856,3.6856,3.5989,3.6044,3.6113,3.619,3.6242,3.63,3.6356,3.6401,3.647,3.6557,3.6576,3.6662,3.6729,3.6838,3.6881,3.6949,3.6938,3.6961,3.6967,3.6971,3.6971,3.6839,3.6964,3.6964,3.6964,3.6963,3.6963,0,3.6097,3.6142,3.6213,3.63,3.6361,3.6365,3.6434,3.6484,3.656,3.6622,3.6688,3.6781,3.6859,3.6916,3.6994,3.7037,3.7043,3.7056,3.7052,3.7061,3.6977,3.6955,3.705,3.705,3.705,3.705,3.705,3.705,3.616,3.6252,3.628,3.6398,3.6442,3.6527,3.6566,3.6619,3.6668,3.6773,3.6837,3.6874,3.6933,3.7017,3.7088,3.7102,3.7129,3.7142,3.7156,3.7077,3.7067,3.7058,3.7037,3.7148,3.7148,3.7234,3.7235,3.7235]},{"header":{"parameterUnit":"m.s-1","parameterCategory":1,"la1":30.2991,"la2":30.254,"lo1":-89.0895,"lo2":-89.0444,"dy":0.0017,"dx":0.0017,"nx":28,"ny":28,"refTime":"2023-08-26T03:00:00:Z","depth":0,"parameterNumber":3,"parameterNumberName":"V-component_of_WINDS"},"data":[0,0,0,0,0,0,0,0,0,0,0,0,0,0,0,0,0,0,0,0,0,0,0,0,0,0,0,0,0,0,0,0,0,0,0,0,0,0,0,0,0,0,0,0,0,0,0,0,0,0,0,0,0,0,0,0,0,0,1.213,1.213,0,1.2147,1.2147,1.2147,1.2111,1.211,1.2108,1.2107,1.2124,1.2125,1.2127,0,0,0,0,0,0,0,0,0,0,0,0,0,1.2064,1.2065,1.213,1.213,1.213,1.2147,1.2147,1.2147,1.2111,1.211,1.2108,1.2107,1.2123,1.2125,1.2127,0,0,0,0,0,0,0,0,0,0,0,0,0,1.2088,1.2066,1.213,1.2114,1.2113,1.2147,1.2147,1.2147,1.2111,1.211,1.2108,1.2106,1.2122,1.2125,1.2127,1.2176,0,0,1.2134,1.2135,0,0,0,0,0,0,0,0,1.2087,1.209,1.2116,1.2115,1.2114,1.2125,1.213,1.2157,1.2112,1.2112,1.2107,1.2105,1.2125,1.2127,1.2134,1.2177,1.2178,1.2134,1.2136,1.2137,1.2137,0,0,0,0,0,0,0,1.2085,1.209,1.2137,1.2117,1.2115,1.2106,1.2107,1.2135,1.2128,1.2112,1.2109,1.2112,1.2124,1.2132,1.2134,1.2178,1.2134,1.2136,1.2138,1.2138,1.2261,1.2263,0,0,0,0,0,0,1.2086,1.2088,1.2136,1.2137,1.2096,1.2108,1.211,1.2123,1.2128,1.2127,1.2113,1.211,1.2129,1.2132,1.2135,1.2192,1.2137,1.2139,1.214,1.2259,1.2261,1.2263,0,0,0,0,0,0,1.2084,1.209,1.2135,1.2112,1.2117,1.2111,1.2127,1.2124,1.2132,1.2129,1.2127,1.2123,1.2128,1.2132,1.2166,1.2192,1.214,1.2142,1.2257,1.226,1.2262,1.2308,0,0,0,0,0,0,1.2083,1.209,1.2109,1.2113,1.2118,1.2167,1.2128,1.2126,1.2136,1.2132,1.2137,1.2136,1.2127,1.2163,1.2168,1.2195,1.2144,1.2254,1.2258,1.2261,1.2304,1.2312,1.2319,0,0,0,0,0,1.208,1.2122,1.2111,1.2117,1.2143,1.2169,1.2172,1.216,1.2139,1.2158,1.2155,1.2136,1.2189,1.2167,1.2173,1.22,1.2253,1.2257,1.2261,1.2301,1.2311,1.2319,0,0,0,0,0,0,1.2122,1.2122,1.211,1.2153,1.2161,1.2163,1.2186,1.2171,1.2185,1.2181,1.2165,1.2167,1.2204,1.2205,1.2181,1.2247,1.2217,1.2222,1.2245,1.2254,1.2262,1.2261,1.2145,0,0,0,0,0,1.2136,1.2158,1.2156,1.2195,1.22,1.2192,1.2203,1.2193,1.2201,1.2204,1.2204,1.2212,1.223,1.2242,1.2259,1.2304,1.2304,1.2326,1.2333,1.2339,1.2344,1.2368,1.2377,1.2277,1.2277,1.2277,0,0,1.2165,1.2168,1.2183,1.2203,1.2208,1.2231,1.2195,1.2221,1.2237,1.2208,1.224,1.2241,1.2248,1.2288,1.2306,1.229,1.2372,1.2345,1.2349,1.2351,1.2373,1.2382,1.2391,1.228,1.2279,1.2279,0,0,1.2231,1.2235,1.2267,1.2273,1.2281,1.2276,1.2283,1.2287,1.2286,1.2318,1.2297,1.2315,1.2347,1.2353,1.236,1.2425,1.2408,1.2431,1.247,1.2493,1.2501,1.2508,1.2531,1.2539,1.2436,1.2436,1.2436,0,1.2266,1.2299,1.2286,1.2312,1.2322,1.2296,1.2328,1.2334,1.2347,1.2354,1.2336,1.2375,1.2378,1.2418,1.2434,1.2441,1.2449,1.2431,1.2501,1.2507,1.2514,1.2536,1.2544,1.2439,1.2439,1.2438,1.2438,0,1.2342,1.2366,1.2391,1.2404,1.2416,1.2445,1.2435,1.2448,1.2437,1.2433,1.2466,1.2469,1.2485,1.2494,1.2483,1.2533,1.2523,1.2503,1.2472,1.2526,1.2547,1.2555,1.2443,1.2442,1.2441,1.244,0,0,1.2435,1.244,1.2449,1.2454,1.246,1.2478,1.2505,1.2521,1.2533,1.2542,1.2564,1.2591,1.2572,1.258,1.257,1.259,1.2641,1.2568,1.2568,1.2581,1.2696,1.2711,1.2721,1.263,1.2631,1.2633,1.2695,0,1.25,1.2547,1.2535,1.2582,1.2603,1.2578,1.2602,1.2608,1.2605,1.2621,1.2617,1.2637,1.2611,1.2616,1.2635,1.2631,1.2664,1.2627,1.265,1.2651,1.2649,1.2731,1.2747,1.2806,1.2703,1.2704,1.2705,0,1.2582,1.2594,1.2643,1.2645,1.2653,1.2675,1.2688,1.2704,1.271,1.2706,1.2714,1.2699,1.2726,1.2694,1.2729,1.2704,1.2713,1.2712,1.2714,1.2716,1.2682,1.2735,1.2824,1.2833,1.2718,1.2717,1.2716,0,1.2644,1.2673,1.2706,1.2711,1.2714,1.2729,1.2731,1.2735,1.2745,1.2756,1.2762,1.2776,1.2784,1.2795,1.2784,1.2762,1.2821,1.2789,1.2818,1.2818,1.2832,1.2831,1.2924,1.2837,1.2837,1.2837,1.2837,0,1.2717,1.2748,1.2734,1.2754,1.2787,1.2773,1.2806,1.2805,1.2809,1.2828,1.2807,1.2825,1.2809,1.2826,1.2817,1.2848,1.2851,1.2849,1.2846,1.2851,1.2851,1.2856,1.2852,1.2839,1.2839,1.2838,1.2838,0,1.2793,1.2785,1.2819,1.2818,1.2819,1.2844,1.2843,1.2861,1.2856,1.288,1.2885,1.2877,1.2895,1.2885,1.2904,1.2898,1.2938,1.293,1.2936,1.2934,1.2964,1.2961,1.3063,1.3076,1.2981,1.2982,1.2983,0,1.2841,1.2864,1.2866,1.2877,1.288,1.2899,1.2909,1.2894,1.2905,1.2913,1.293,1.2947,1.2959,1.299,1.2985,1.2999,1.2991,1.3026,1.2993,1.2997,1.2992,1.2991,1.2993,1.3033,1.3034,1.3035,1.3036,0,1.2926,1.292,1.2935,1.2949,1.2961,1.2971,1.2979,1.2989,1.2975,1.2988,1.3007,1.3017,1.3036,1.3052,1.3064,1.3065,1.3048,1.3046,1.3053,1.3058,1.3061,1.306,1.2954,1.3044,1.3043,1.3042,1.3042,1.3042,1.2989,1.3008,1.3012,1.3029,1.3034,1.3041,1.3058,1.3055,1.307,1.3085,1.3075,1.3097,1.3101,1.3115,1.3118,1.3134,1.312,1.3132,1.3134,1.3137,1.3141,1.3058,1.3137,1.3136,1.3136,1.3136,1.3136,0,1.3072,1.3074,1.309,1.3101,1.3115,1.3097,1.3105,1.3117,1.3137,1.3142,1.3154,1.3175,1.3191,1.3187,1.3201,1.3215,1.3207,1.3219,1.3218,1.3218,1.3153,1.3145,1.3225,1.3225,1.3225,1.3225,1.3225,1.3225,1.3118,1.3149,1.3143,1.3176,1.3177,1.3198,1.3204,1.3211,1.3215,1.3239,1.3252,1.3249,1.325,1.3264,1.3277,1.3276,1.3282,1.3297,1.3292,1.3232,1.3223,1.3214,1.3207,1.3298,1.3298,1.3356,1.3356,1.3357]}]]